Location: Seattle
(47.6064°N, 122.3308°W)
Time: 10:25:42
(UTC-07:00)

Explorer 7 - Pass Details

Date: 06 August 2021
Orbit: 484 x 676 km, 50.3° (Epoch: 22 September)

Event Time Altitude Azimuth Distance (km) Brightness Sun altitude
Exits shadow 04:57:40 12° 239° (WSW) 1,534 8.4 -8.9°
Maximum altitude 05:01:04 72° 157° (SSE) 522 6.7 -8.4°
Drops below altitude 10° 05:04:56 10° 72° (ENE) 1,719 10.8 -7.9°
Sets 05:07:11 0° 70° (ENE) 2,632 12.1 -7.6°
